Time,TemperatureF,DewpointF,PressureIn,WindDirection,WindDirectionDegrees,WindSpeedMPH,WindSpeedGustMPH,Humidity,HourlyPrecipIn,Conditions,Clouds,dailyrainin,SoftwareType,DateUTC
2013-05-21 00:06:00,52.6,49.0,30.10,SSW,212,2.0,2.0,86,0.00,,,0.00,weatherlink.com 1.10,2013-05-20 22:06:00,
2013-05-21 00:21:00,52.0,49.0,30.09,South,174,1.0,2.0,88,0.00,,,0.00,weatherlink.com 1.10,2013-05-20 22:21:00,
2013-05-21 00:36:00,51.5,49.0,30.09,SSW,197,2.0,2.0,90,0.00,,,0.00,weatherlink.com 1.10,2013-05-20 22:36:00,
2013-05-21 00:51:00,51.5,49.0,30.08,SSW,193,0.0,0.0,90,0.00,,,0.00,weatherlink.com 1.10,2013-05-20 22:51:00,
2013-05-21 01:06:00,51.4,49.0,30.07,SSW,205,0.0,1.0,90,0.00,,,0.00,weatherlink.com 1.10,2013-05-20 23:06:00,
2013-05-21 01:36:00,51.8,49.0,30.09,SSW,204,0.0,0.0,90,0.00,,,0.00,weatherlink.com 1.10,2013-05-20 23:36:00,
2013-05-21 01:51:00,51.7,48.0,30.09,ENE,68,0.0,2.0,88,0.00,,,0.00,weatherlink.com 1.10,2013-05-20 23:51:00,
2013-05-21 02:06:00,50.5,48.0,30.10,ENE,65,0.0,2.0,91,0.00,,,0.00,weatherlink.com 1.10,2013-05-21 00:06:00,
2013-05-21 02:21:00,50.1,48.0,30.08,ENE,65,0.0,0.0,91,0.00,,,0.00,weatherlink.com 1.10,2013-05-21 00:21:00,
2013-05-21 02:36:00,50.2,48.0,30.08,ENE,65,0.0,0.0,92,0.00,,,0.00,weatherlink.com 1.10,2013-05-21 00:36:00,
2013-05-21 02:51:00,50.1,48.0,30.08,ENE,65,0.0,0.0,92,0.00,,,0.00,weatherlink.com 1.10,2013-05-21 00:51:00,
2013-05-21 03:06:00,50.1,48.0,30.05,SSW,198,0.0,0.0,92,0.00,,,0.00,weatherlink.com 1.10,2013-05-21 01:06:00,
2013-05-21 03:21:00,49.3,47.0,30.06,SSW,194,0.0,0.0,93,0.00,,,0.00,weatherlink.com 1.10,2013-05-21 01:21:00,
2013-05-21 03:36:00,49.4,48.0,30.06,North,350,0.0,0.0,93,0.00,,,0.00,weatherlink.com 1.10,2013-05-21 01:36:00,
2013-05-21 03:51:00,50.1,49.0,30.06,North,349,0.0,0.0,94,0.00,,,0.00,weatherlink.com 1.10,2013-05-21 01:51:00,
2013-05-21 04:06:00,50.5,49.0,30.07,North,350,0.0,0.0,93,0.00,,,0.00,weatherlink.com 1.10,2013-05-21 02:06:00,
2013-05-21 04:21:00,50.6,48.0,30.07,ESE,106,0.0,0.0,92,0.00,,,0.00,weatherlink.com 1.10,2013-05-21 02:21:00,
2013-05-21 04:36:00,50.0,48.0,30.06,ESE,116,0.0,0.0,92,0.00,,,0.00,weatherlink.com 1.10,2013-05-21 02:36:00,
2013-05-21 04:51:00,50.0,48.0,30.05,ESE,115,0.0,0.0,93,0.00,,,0.00,weatherlink.com 1.10,2013-05-21 02:51:00,
2013-05-21 05:06:00,50.1,48.0,30.03,SSW,198,0.0,0.0,93,0.00,,,0.00,weatherlink.com 1.10,2013-05-21 03:06:00,
2013-05-21 05:21:00,50.1,48.0,30.03,South,188,0.0,0.0,93,0.00,,,0.00,weatherlink.com 1.10,2013-05-21 03:21:00,
2013-05-21 05:36:00,50.7,49.0,30.02,SSW,195,0.0,0.0,93,0.00,,,0.00,weatherlink.com 1.10,2013-05-21 03:36:00,
2013-05-21 05:51:00,52.5,50.0,30.02,SE,146,2.0,3.0,92,0.00,,,0.00,weatherlink.com 1.10,2013-05-21 03:51:00,
2013-05-21 06:06:00,52.4,51.0,30.02,South,169,2.0,4.0,93,0.00,,,0.00,weatherlink.com 1.10,2013-05-21 04:06:00,
2013-05-21 06:21:00,53.2,51.0,30.02,South,171,3.0,6.0,91,0.00,,,0.00,weatherlink.com 1.10,2013-05-21 04:21:00,
2013-05-21 06:36:00,53.9,52.0,30.03,South,186,1.0,3.0,92,0.00,,,0.00,weatherlink.com 1.10,2013-05-21 04:36:00,
2013-05-21 06:52:00,54.3,51.0,30.03,WSW,240,0.0,1.0,89,0.00,,,0.00,weatherlink.com 1.10,2013-05-21 04:52:00,
2013-05-21 07:07:00,54.8,52.0,30.02,WSW,249,0.0,2.0,90,0.00,,,0.00,weatherlink.com 1.10,2013-05-21 05:07:00,
2013-05-21 07:22:00,55.2,52.0,30.03,SSE,160,2.0,3.0,89,0.00,,,0.00,weatherlink.com 1.10,2013-05-21 05:22:00,
2013-05-21 07:37:00,55.7,53.0,30.02,South,187,4.0,4.0,90,0.00,,,0.00,weatherlink.com 1.10,2013-05-21 05:37:00,
2013-05-21 07:52:00,55.9,53.0,30.02,SSW,195,3.0,5.0,91,0.00,,,0.00,weatherlink.com 1.10,2013-05-21 05:52:00,
2013-05-21 08:07:00,56.7,54.0,30.02,South,191,4.0,9.0,91,0.00,,,0.00,weatherlink.com 1.10,2013-05-21 06:07:00,
2013-05-21 08:22:00,57.1,55.0,30.02,South,172,5.0,6.0,91,0.00,,,0.00,weatherlink.com 1.10,2013-05-21 06:22:00,
2013-05-21 08:37:00,58.7,55.0,30.03,SSW,196,3.0,7.0,88,0.00,,,0.00,weatherlink.com 1.10,2013-05-21 06:37:00,
2013-05-21 08:52:00,59.7,56.0,30.04,SSW,198,5.0,8.0,86,0.00,,,0.00,weatherlink.com 1.10,2013-05-21 06:52:00,
2013-05-21 09:07:00,60.3,56.0,30.03,South,184,5.0,10.0,84,0.00,,,0.00,weatherlink.com 1.10,2013-05-21 07:07:00,
2013-05-21 09:22:00,60.3,55.0,30.02,SW,233,7.0,12.0,82,0.00,,,0.00,weatherlink.com 1.10,2013-05-21 07:22:00,
2013-05-21 09:37:00,61.2,55.0,30.02,West,262,7.0,10.0,80,0.00,,,0.00,weatherlink.com 1.10,2013-05-21 07:37:00,
2013-05-21 09:52:00,61.3,55.0,30.03,SW,218,6.0,12.0,79,0.00,,,0.00,weatherlink.com 1.10,2013-05-21 07:52:00,
2013-05-21 10:07:00,61.6,55.0,30.02,SW,236,5.0,12.0,78,0.00,,,0.00,weatherlink.com 1.10,2013-05-21 08:07:00,
2013-05-21 10:22:00,61.4,54.0,30.02,SSW,211,12.0,13.0,77,0.00,,,0.00,weatherlink.com 1.10,2013-05-21 08:22:00,
2013-05-21 10:37:00,61.3,54.0,30.02,WSW,256,9.0,15.0,76,0.00,,,0.00,weatherlink.com 1.10,2013-05-21 08:37:00,
2013-05-21 10:52:00,61.4,55.0,30.02,SW,224,5.0,13.0,78,0.00,,,0.00,weatherlink.com 1.10,2013-05-21 08:52:00,
2013-05-21 11:07:00,61.6,54.0,30.01,West,271,11.0,15.0,75,0.00,,,0.00,weatherlink.com 1.10,2013-05-21 09:07:00,
2013-05-21 11:22:00,62.2,53.0,30.01,South,184,9.0,15.0,73,0.00,,,0.00,weatherlink.com 1.10,2013-05-21 09:22:00,
2013-05-21 11:37:00,62.0,53.0,30.01,WSW,246,14.0,15.0,73,0.00,,,0.00,weatherlink.com 1.10,2013-05-21 09:37:00,
2013-05-21 11:52:00,61.7,54.0,30.00,SW,235,6.0,15.0,75,0.00,,,0.00,weatherlink.com 1.10,2013-05-21 09:52:00,
2013-05-21 12:07:00,62.1,54.0,30.00,SSW,207,12.0,16.0,74,0.00,,,0.00,weatherlink.com 1.10,2013-05-21 10:07:00,
2013-05-21 12:23:00,61.5,54.0,30.00,SSW,205,8.0,18.0,77,0.00,,,0.00,weatherlink.com 1.10,2013-05-21 10:23:00,
2013-05-21 12:37:00,61.4,54.0,30.00,SW,217,13.0,16.0,76,0.00,,,0.00,weatherlink.com 1.10,2013-05-21 10:37:00,
2013-05-21 12:52:00,60.9,54.0,29.99,SSW,194,5.0,21.0,77,0.00,,,0.00,weatherlink.com 1.10,2013-05-21 10:52:00,
2013-05-21 13:07:00,60.7,53.0,29.98,SSW,198,14.0,20.0,76,0.00,,,0.00,weatherlink.com 1.10,2013-05-21 11:07:00,
2013-05-21 13:22:00,60.4,52.0,29.98,SSW,208,11.0,19.0,74,0.00,,,0.00,weatherlink.com 1.10,2013-05-21 11:22:00,
2013-05-21 13:37:00,60.4,51.0,29.97,SSW,198,13.0,20.0,72,0.00,,,0.00,weatherlink.com 1.10,2013-05-21 11:37:00,
2013-05-21 13:52:00,60.4,51.0,29.98,SSW,211,10.0,16.0,72,0.00,,,0.00,weatherlink.com 1.10,2013-05-21 11:52:00,
2013-05-21 14:07:00,60.1,51.0,29.98,SSW,198,12.0,17.0,72,0.00,,,0.00,weatherlink.com 1.10,2013-05-21 12:07:00,
2013-05-21 14:22:00,59.8,51.0,29.97,South,173,15.0,22.0,72,0.00,,,0.00,weatherlink.com 1.10,2013-05-21 12:22:00,
2013-05-21 14:38:00,59.9,51.0,29.96,SSW,204,11.0,18.0,73,0.00,,,0.00,weatherlink.com 1.10,2013-05-21 12:38:00,
2013-05-21 14:53:00,60.6,51.0,29.95,SSW,203,8.0,21.0,71,0.00,,,0.00,weatherlink.com 1.10,2013-05-21 12:53:00,
2013-05-21 15:08:00,60.8,51.0,29.95,SSW,193,12.0,21.0,70,0.00,,,0.00,weatherlink.com 1.10,2013-05-21 13:08:00,
2013-05-21 15:23:00,61.2,52.0,29.95,South,190,10.0,19.0,71,0.00,,,0.00,weatherlink.com 1.10,2013-05-21 13:23:00,
2013-05-21 15:38:00,60.5,51.0,29.97,SW,217,6.0,19.0,70,0.00,,,0.00,weatherlink.com 1.10,2013-05-21 13:38:00,
2013-05-21 15:53:00,60.5,52.0,29.99,WSW,238,8.0,9.0,74,0.00,,,0.00,weatherlink.com 1.10,2013-05-21 13:53:00,
2013-05-21 16:08:00,60.0,52.0,29.96,SW,231,9.0,18.0,76,0.00,,,0.00,weatherlink.com 1.10,2013-05-21 14:08:00,
2013-05-21 16:23:00,58.1,53.0,29.91,SSW,194,19.0,22.0,84,0.00,,,0.00,weatherlink.com 1.10,2013-05-21 14:23:00,
2013-05-21 16:38:00,57.3,54.0,29.89,SSW,204,13.0,26.0,87,0.00,,,0.00,weatherlink.com 1.10,2013-05-21 14:38:00,
2013-05-21 16:53:00,57.6,54.0,29.91,SW,236,13.0,17.0,86,0.00,,,0.00,weatherlink.com 1.10,2013-05-21 14:53:00,
2013-05-21 17:23:00,57.9,53.0,29.88,SSW,200,13.0,19.0,84,0.00,,,0.00,weatherlink.com 1.10,2013-05-21 15:23:00,
2013-05-21 17:38:00,58.3,53.0,29.88,SSE,167,12.0,18.0,83,0.00,,,0.00,weatherlink.com 1.10,2013-05-21 15:38:00,
2013-05-21 17:53:00,58.5,52.0,29.88,SSW,198,4.0,16.0,80,0.00,,,0.00,weatherlink.com 1.10,2013-05-21 15:53:00,
2013-05-21 18:08:00,58.7,51.0,29.90,West,273,6.0,14.0,75,0.00,,,0.00,weatherlink.com 1.10,2013-05-21 16:08:00,
2013-05-21 18:23:00,59.0,51.0,29.92,WSW,243,10.0,12.0,74,0.00,,,0.00,weatherlink.com 1.10,2013-05-21 16:23:00,
2013-05-21 18:38:00,59.1,51.0,29.91,SW,236,8.0,16.0,74,0.00,,,0.00,weatherlink.com 1.10,2013-05-21 16:38:00,
2013-05-21 18:53:00,59.0,51.0,29.89,SSW,204,11.0,18.0,74,0.00,,,0.00,weatherlink.com 1.10,2013-05-21 16:53:00,
2013-05-21 19:08:00,59.1,50.0,29.90,SSW,199,12.0,19.0,73,0.00,,,0.00,weatherlink.com 1.10,2013-05-21 17:08:00,
2013-05-21 19:23:00,59.1,49.0,29.90,SSW,195,8.0,19.0,70,0.00,,,0.00,weatherlink.com 1.10,2013-05-21 17:23:00,
2013-05-21 19:38:00,59.0,49.0,29.91,SSW,207,8.0,13.0,69,0.00,,,0.00,weatherlink.com 1.10,2013-05-21 17:38:00,
2013-05-21 19:53:00,58.7,49.0,29.91,SSW,198,4.0,9.0,69,0.00,,,0.00,weatherlink.com 1.10,2013-05-21 17:53:00,
2013-05-21 20:08:00,58.4,49.0,29.91,SSW,198,4.0,6.0,72,0.00,,,0.00,weatherlink.com 1.10,2013-05-21 18:08:00,
2013-05-21 20:23:00,58.1,49.0,29.93,WSW,245,2.0,4.0,73,0.00,,,0.00,weatherlink.com 1.10,2013-05-21 18:23:00,
2013-05-21 20:38:00,57.2,51.0,29.93,West,263,2.0,5.0,79,0.02,,,0.02,weatherlink.com 1.10,2013-05-21 18:38:00,
2013-05-21 20:53:00,56.4,52.0,29.94,SW,232,2.0,4.0,84,0.06,,,0.06,weatherlink.com 1.10,2013-05-21 18:53:00,
2013-05-21 21:08:00,56.0,52.0,29.94,West,273,1.0,4.0,87,0.08,,,0.08,weatherlink.com 1.10,2013-05-21 19:08:00,
2013-05-21 21:23:00,56.1,52.0,29.94,WSW,245,2.0,4.0,87,0.09,,,0.09,weatherlink.com 1.10,2013-05-21 19:23:00,
2013-05-21 21:38:00,55.8,52.0,29.95,SSW,212,2.0,2.0,88,0.06,,,0.09,weatherlink.com 1.10,2013-05-21 19:38:00,
2013-05-21 21:53:00,55.4,53.0,29.95,SE,129,2.0,3.0,90,0.03,,,0.09,weatherlink.com 1.10,2013-05-21 19:53:00,
2013-05-21 22:08:00,55.5,52.0,29.95,SE,137,3.0,3.0,89,0.01,,,0.09,weatherlink.com 1.10,2013-05-21 20:08:00,
2013-05-21 22:23:00,55.6,52.0,29.96,SSW,207,2.0,2.0,88,0.00,,,0.09,weatherlink.com 1.10,2013-05-21 20:23:00,
2013-05-21 22:38:00,55.2,53.0,29.97,South,169,1.0,1.0,91,0.01,,,0.09,weatherlink.com 1.10,2013-05-21 20:38:00,
2013-05-21 22:53:00,55.0,53.0,29.97,SSW,205,0.0,0.0,92,0.01,,,0.09,weatherlink.com 1.10,2013-05-21 20:53:00,
2013-05-21 23:08:00,55.3,53.0,29.96,South,190,2.0,3.0,90,0.01,,,0.09,weatherlink.com 1.10,2013-05-21 21:08:00,
2013-05-21 23:23:00,55.3,53.0,29.96,SSE,148,2.0,3.0,90,0.01,,,0.09,weatherlink.com 1.10,2013-05-21 21:23:00,
2013-05-21 23:38:00,55.2,53.0,29.96,SE,134,3.0,3.0,91,0.00,,,0.09,weatherlink.com 1.10,2013-05-21 21:38:00,
2013-05-21 23:53:00,55.6,53.0,29.96,SSE,158,2.0,3.0,90,0.00,,,0.09,weatherlink.com 1.10,2013-05-21 21:53:00,